This is the latest recevied weather packets stored in our database for station/object LY3FF-10. If no packets are shown the sender has not sent any weather packets the latest 10 day(s).
| Time | Temp. | Humidity | Pressure | Rain* | Wind** | Luminosity | Snow |
|---|---|---|---|---|---|---|---|
| 1787924615 | 24.44° C | 46% | 1003.4 hPa | - | - | - | - |
| 1787923765 | 24.44° C | 45% | 1003.5 hPa | - | - | - | - |
| 1787923030 | 28.89° C | 47% | 1003.6 hPa | - | - | - | - |
| 1787922275 | 25° C | 46% | 1003.8 hPa | - | - | - | - |
| 1787921410 | 24.44° C | 46% | 1004.2 hPa | - | - | - | - |
| 1787920675 | 24.44° C | 47% | 1004.3 hPa | - | - | - | - |
| 1787919850 | 23.33° C | 47% | 1004.3 hPa | - | - | - | - |
| 1787919010 | 35.56° C | 48% | 1004.3 hPa | - | - | - | - |
| 1787918130 | 34.44° C | 50% | 1004.5 hPa | - | - | - | - |
| 1787917295 | 37.78° C | 50% | 1004.6 hPa | - | - | - | - |
| 1787916550 | 32.22° C | 52% | 1004.6 hPa | - | - | - | - |
| 1787915790 | 23.89° C | 51% | 1004.9 hPa | - | - | - | - |
| 1787914998 | 40.56° C | 52% | 1004.9 hPa | - | - | - | - |
| 1787914124 | 39.44° C | 56% | 1004.9 hPa | - | - | - | - |
| 1787913390 | 22.78° C | 54% | 1004.8 hPa | - | - | - | - |
| 1787912520 | 21.67° C | 57% | 1004.9 hPa | - | - | - | - |
| 1787911664 | 22.22° C | 58% | 1005.1 hPa | - | - | - | - |
| 1787910944 | 21.67° C | 58% | 1005.4 hPa | - | - | - | - |
| 1787910064 | 21.67° C | 59% | 1005.6 hPa | - | - | - | - |
| 1787909290 | 21.11° C | 59% | 1005.7 hPa | - | - | - | - |
| 1787908410 | 20.56° C | 61% | 1005.9 hPa | - | - | - | - |
| 1787907620 | 20° C | 62% | 1005.9 hPa | - | - | - | - |
| 1787906804 | 19.44° C | 62% | 1006 hPa | - | - | - | - |
| 1787905924 | 19.44° C | 65% | 1006.1 hPa | - | - | - | - |
| 1787905195 | 20.56° C | 65% | 1006.2 hPa | - | - | - | - |
* Rain since midnight (hover to see other rain measurements)
** Current wind speed in m/s (hover to see current wind gust speed)